AirNav   Everest Fuels
 
 1306 users online  

SC45 Gilbert International Airpark
Gilbert, South Carolina, USA

GOING TO GILBERT?


FAA INFORMATION EFFECTIVE 18 JUNE 2020

Location

FAA Identifier: SC45
Lat/Long: 33-53-02.5270N 081-22-54.3660W
33-53.042117N 081-22.906100W
33.8840353,-81.3817683
(estimated)
Elevation: 551 ft. / 168 m (estimated)
Variation: 04W (1985)
From city: 2 miles S of GILBERT, SC
Time zone: UTC -4 (UTC -5 during Standard Time)
Zip code: 29054

Airport Operations

Airport use: Private use. Permission required prior to landing
Activation date: 11/1990
Control tower: no
ARTCC: JACKSONVILLE CENTER
FSS: ANDERSON FLIGHT SERVICE STATION
Attendance: UNATNDD
Wind indicator: yes
Segmented circle: no
Lights: ACTVT MIRL RY 09/27 - 122.85

Airport Communications

WX ASOS at CAE (13 nm E): 120.15 (803-822-4168)
WX ASOS at CUB (20 nm E): 118.675 (803-929-0665)

Nearby radio navigation aids

VOR radial/distance  VOR name  Freq  Var
CAEr278/16.4COLUMBIA VORTAC114.7002W
MMTr273/29.0MC ENTIRE VORTAC113.2008W

 
NDB name  Hdg/Dist  Freq  Var  ID
MURRY241/8.436207WCA -.-. .-
AIKEN053/20.334706WAIK .- .. -.-
ENOREE161/28.627807WEOE . --- .
EMORY055/39.838504WEMR . -- .-.

Airport Services

Runway Information

Runway 9/27

Dimensions: 3000 x 75 ft. / 914 x 23 m
Surface: turf, in fair condition
Runway edge lights: low intensity
RUNWAY 9  RUNWAY 27
Traffic pattern: leftleft
Obstructions: 50 ft. trees, 300 ft. from runway50 ft. trees, 50 ft. from runway

Airport Ownership and Management from official FAA records

Ownership: Privately-owned
Owner: GILBERT INT'L AIRPARK HO ASSOC.
231 UPWIND LEG RD
GILBERT, SC 29054-8555
Phone 803-657-8262
CONTACT PERSONS: MR. PHIL LUMPKIN/803-657-7797 OR MR. DAVID HARDY/803-657-7108.
Manager: DAVID HARDY, ASSOCIATION PRESIDENT
376 DOWNWIND LEE RD
GILBERT, SC 29054
Phone 803-463-7662

Airport Operational Statistics

Aircraft based on the field: 17
Single engine airplanes: 16
Multi engine airplanes: 1
    

Additional Remarks

LIGHTED PORTION OF RWY IS 2400 FT; 300FT OVER RUN EACH END.
FOR CD CTC COLUMBIA APCH AT 803-822-5242 OR 803-822-5040.

Instrument Procedures

There are no published instrument procedures at SC45.

Some nearby airports with instrument procedures:

6J0 - Lexington County Airport (9 nm SE)
KCAE - Columbia Metropolitan Airport (13 nm E)
KCUB - Jim Hamilton L B Owens Airport (20 nm E)
KAIK - Aiken Regional Airport (21 nm SW)
6J4 - Saluda County Airport (21 nm W)
 
Loc | Ops | Rwys | IFR | FBO | Links
Com | Nav | Svcs | Stats | Notes
Area around SC45 (Gilbert International Airpark)
 
Road maps at: MapQuest Bing Google
 
Aerial photo
WARNING: Photo may not be current or correct
Aerial photo of SC45 (Gilbert International Airpark)
Taken in the Summer of 2009

Do you have a better or more recent aerial photo of Gilbert International Airpark that you would like to share? If so, please send us your photo.

 
Sectional chart

 
Airport distance calculator
Flying to Gilbert International Airpark? Find the distance to fly.

From to SC45

Sunrise and sunset
Times for 02-Jul-2020
 Local
(UTC-4)
 Zulu
(UTC)
Morning civil twilight05:5109:51
Sunrise06:2010:20
Sunset20:3900:39
Evening civil twilight21:0801:08

Current date and time
Zulu (UTC)  02-Jul-2020 16:27:18
Local (UTC-4)  02-Jul-2020 12:27:18
 
METAR
KCAE 
14nm E 
021556Z 06008KT 10SM SCT031 BKN042 32/22 A2988 RMK AO2 SLP116 T03170222
KCUB 
20nm E 
021553Z AUTO VRB04KT 10SM FEW037 BKN060 31/22 A2989 RMK AO2 SLP120 T03110222
KAIK 
21nm SW 
021615Z AUTO 35006KT 10SM BKN038 BKN050 BKN070 31/21 A2992 RMK AO2 T03070215
KXNO 
22nm SE 
021556Z AUTO 03003KT 10SM FEW030 31/29 A2990 RMK AO2 SLP124 T03090292 $
TAF
KCAE 
14nm E 
021129Z 0212/0312 VRB03KT P6SM FEW100 FM021800 03006KT P6SM SCT050 FM030100 VRB03KT P6SM FEW250
KCUB 
20nm E 
021129Z 0212/0312 00000KT P6SM FEW100 FM021800 02005KT P6SM SCT050 FM030100 00000KT P6SM FEW250
NOTAMs
Click for the latest NOTAMs
NOTAMs are issued by the DoD/FAA and will open in a separate window not controlled by AirNav.

 

 
 

Would you like to see your business listed on this page?

 If your business provides an interesting product or service to pilots, flight crews, aircraft, or users of the Gilbert International Airpark, you should consider listing it here.  To start the listing process, click on the button below
 
Add a business
 

Other Pages about Gilbert International Airpark

Update a link
 
Copyright © AirNav, LLC. All rights reserved. Privacy Policy  Contact